Regional Weather Roundup
Issued by NWS

Home | Current Version | Previous Version | Text Only | Print | Product List | Glossary On
Versions: 1 2 3 4 5 6 7 8 9 10 11 12 13 14 15 16 17 18 19 20 21 22 23 24 25 26 27 28 29 30 31 32 33 34 35 36 37 38 39 40 41 42 43 44 45 46 47 48 49 50
000
ASUS43 KTOP 231359
RWRKS

WEATHER ROUNDUP FOR KANSAS
NATIONAL WEATHER SERVICE GOODLAND KS
900 AM CDT SUN JUL 23 2017

NOTE:  "FAIR" INDICATES FEW OR NO CLOUDS BELOW 12,000 FEET WITH NO
SIGNIFICANT WEATHER AND/OR OBSTRUCTIONS TO VISIBILITY.

KSZ001>006-013>018-027>032-041>047-231500-
NORTHWEST KANSAS

CITY           SKY/WX    TMP DP  RH WIND       PRES   REMARKS
GOODLAND       MOSUNNY   71  60  68 N3        30.12S
HAYS           SUNNY     79  69  71 N6        30.03R
HILL CITY      FOG       73  73 100 NW5       30.05S VSB 1
RUSSELL        SUNNY     78  68  71 N6        30.01R
$$

KSZ061>065-074>080-084>089-231500-
SOUTHWEST KANSAS

CITY           SKY/WX    TMP DP  RH WIND       PRES   REMARKS
DODGE CITY     CLOUDY    76  65  68 NE7       30.05R
ELKHART          N/A     70  54  57 NE8         N/A
GARDEN CITY    MOSUNNY   73  64  73 NE10      30.07R
LIBERAL        CLOUDY    72  66  81 N7        30.07R
$$

KSZ066>073-081>083-090>101-231500-
SOUTHEAST KANSAS

CITY           SKY/WX    TMP DP  RH WIND       PRES   REMARKS
CHANUTE        CLOUDY    71  69  93 VRB5      29.93F
COFFEYVILLE    PTSUNNY   73  70  90 SE8       29.92S
HUTCHINSON     SUNNY     76  70  82 N7        29.99R
MEDICINE LODGE   N/A     73  67  81 E9        29.98S
NEWTON           N/A     75  70  84 N9        29.99R
PARSONS        LGT RAIN  71  69  93 VRB3      29.92F
WICHITA INTL   CLOUDY    76  71  85 VRB5      29.97R
WICHITA JABRA  CLOUDY    76  71  85 N8        29.98R
WINFIELD       PTSUNNY   78  67  68 E7        29.96S
$$

KSZ007>012-019>026-033>040-048>060-102>105-231500-
NORTHEAST KANSAS

CITY           SKY/WX    TMP DP  RH WIND       PRES   REMARKS
CONCORDIA      SUNNY     77  69  76 NW6       29.99R
EMPORIA        CLOUDY    75  68  78 W5        29.96F
LAWRENCE       CLOUDY    77  71  82 W5        29.94S
MANHATTAN      SUNNY     76  69  79 CALM      29.97S
OLATHE IND     CLOUDY    76  68  76 SW10      29.95S
OLATHE EXE     CLOUDY    75  68  78 SW8       29.95R
SALINA         SUNNY     78  70  76 N6        29.99F
TOPEKA BILLARD PTSUNNY   76  71  85 VRB5      29.94S
TOPEKA FORBES  PTSUNNY   75  71  87 W7        29.95S
$$




USA.gov is the U.S. government's official web portal to all federal, state and local government web resources and services.